Probability
0 0 0 0 0 0 0 0 0 0 0 0 0 0 0 0 0 0 0 0 0 0 0 1 2 2 1 1 1 1 0 0 0 0 0 0 0 0 0 0 0 0 0 0 0 0 0 0 0
0 0 0 0 0 0 0 0 0 0 0 0 0 0 0 0 0 0 0 0 0 0 0 1 2 2 2 1 1 1 1 0 0 0 0 0 0 0 1 1 0 0 0 0 0 0 1 1 1
0 0 0 0 0 0 0 0 0 0 0 0 0 0 0 0 0 0 0 0 0 0 0 0 1 2 2 1 0 2 2 1 1 1 1 0 0 0 1 1 2 2 2 1 1 1 1 2 2
0 0 0 0 0 0 0 0 0 0 0 0 0 0 0 0 0 0 0 0 0 0 0 0 0 1 1 1 1 2 2 1 1 2 1 1 1 1 1 1 2 4 4 4 3 1 1 1 1
0 0 0 0 0 0 0 0 0 0 0 0 0 0 0 0 0 0 0 0 0 0 0 0 0 0 1 1 2 2 2 1 1 1 2 2 2 2 1 1 2 3 4 6 5 2 0 0 1
0 0 0 0 0 0 0 0 0 0 0 0 0 0 0 0 0 0 0 0 0 0 0 0 0 0 0 1 1 1 1 1 0 0 1 2 2 3 4 3 2 1 3 5 5 3 1 0 1
0 0 0 0 0 0 0 0 0 0 0 0 0 0 0 0 0 0 0 0 0 0 0 0 0 0 0 0 0 0 0 0 0 0 1 1 3 4 5 5 3 1 2 4 4 3 2 1 0
0 0 0 0 0 0 0 0 0 0 0 0 0 0 0 0 0 0 0 0 0 0 0 0 0 0 0 0 0 0 0 0 0 0 0 0 1 2 3 4 3 2 3 4 5 4 3 1 0
0 0 0 0 0 0 0 0 0 0 0 0 0 0 0 0 0 0 0 0 0 0 0 0 0 0 0 0 0 0 0 0 0 0 0 0 0 0 1 2 2 3 3 4 5 4 2 1 0
0 0 0 0 0 0 0 0 0 0 0 0 0 0 0 0 0 0 0 0 0 0 0 0 0 0 0 0 0 0 0 0 0 0 0 0 0 0 0 0 1 1 1 2 2 2 1 0 0
1 0 0 0 0 0 0 0 0 0 0 0 0 0 0 0 0 0 0 0 0 0 0 0 0 0 0 0 0 0 0 0 0 0 0 0 0 0 0 0 0 0 0 0 1 2 2 1 0
2 1 0 0 0 0 0 0 0 0 0 0 0 0 0 0 0 0 0 0 0 0 0 0 0 0 0 0 0 0 0 0 0 0 0 0 0 0 0 0 0 0 0 1 3 4 4 2 1
2 1 0 0 0 0 0 0 0 0 0 0 0 0 0 0 0 0 0 0 0 0 0 0 0 0 0 0 0 0 0 0 0 0 0 0 0 0 0 0 0 0 0 1 3 3 3 3 2
3 2 1 0 0 0 0 0 0 0 0 0 0 0 0 0 0 0 0 0 0 0 0 0 0 0 0 0 0 0 0 0 0 0 0 0 0 0 0 0 1 0 0 1 1 1 1 2 2
4 3 1 0 0 0 0 0 0 0 0 0 0 0 0 0 0 0 0 0 0 0 0 0 0 0 0 0 0 0 0 0 0 0 0 0 0 0 0 0 0 0 0 1 1 1 1 1 1
3 2 0 0 0 0 0 0 0 0 0 0 0 0 0 0 0 0 0 0 0 0 0 0 0 0 0 0 0 0 0 0 0 0 0 0 0 0 0 0 0 0 0 1 2 3 2 1 0
1 0 0 0 0 0 0 0 0 0 0 0 0 0 0 0 0 0 0 0 0 0 0 0 0 0 0 0 0 0 0 0 0 0 0 0 0 0 0 0 0 0 0 0 1 3 4 3 2
0 0 0 0 0 0 0 0 0 0 0 0 0 0 0 0 0 0 0 0 0 0 0 0 0 0 0 0 0 0 0 0 0 0 0 0 0 0 0 0 0 0 0 0 0 1 3 4 4
0 0 0 0 0 0 0 0 0 0 0 0 0 0 0 0 0 0 0 0 0 0 0 0 0 0 0 0 0 0 0 0 0 0 0 0 0 0 0 0 0 0 0 0 0 0 2 3 4
0 0 0 0 0 0 0 0 0 0 0 0 0 0 0 0 0 0 0 0 0 0 0 0 0 0 0 0 0 0 0 0 0 0 0 0 0 0 0 0 0 0 0 0 0 0 1 2 3
0 0 0 0 0 0 0 0 0 0 0 0 0 0 0 0 0 0 0 0 0 0 0 0 0 0 0 0 0 0 0 0 0 0 0 0 0 0 0 0 0 0 0 0 0 0 1 1 2
0 0 0 0 0 0 0 0 0 0 0 0 0 0 0 0 0 0 0 0 0 0 0 0 0 0 0 0 0 0 0 0 0 0 0 0 0 0 0 0 0 0 0 0 0 0 0 0 1
0 0 0 0 0 0 0 0 0 0 0 0 0 0 0 0 0 0 0 0 0 0 0 0 0 0 0 0 0 0 0 0 0 0 0 0 0 0 0 0 0 0 0 0 0 0 0 0 0
0 0 0 0 0 0 0 0 0 0 0 0 0 0 0 0 0 0 0 0 0 0 0 0 0 0 0 0 0 0 0 0 0 0 0 0 0 0 0 0 0 0 0 0 0 0 0 0 0
0 0 0 0 0 0 0 0 0 0 0 0 0 0 0 0 0 0 0 0 0 0 0 0 0 0 0 0 0 0 0 0 0 0 0 0 0 0 0 0 0 0 0 0 0 0 0 0 0
0 0 0 0 0 0 0 0 0 0 0 0 0 0 0 0 0 0 0 0 0 0 0 0 0 0 0 0 0 0 0 0 0 0 0 0 0 0 0 0 0 0 0 0 0 0 0 0 0
0 0 0 0 0 0 0 0 0 0 0 0 0 0 0 0 0 0 0 0 0 0 0 0 0 0 0 0 0 0 0 0 0 0 0 0 0 0 0 0 0 0 0 0 0 0 0 0 0
0 0 0 0 0 0 0 0 0 0 0 0 0 0 0 0 0 0 0 0 0 0 0 0 0 0 0 0 0 0 0 0 0 0 0 0 0 0 0 0 0 0 0 0 0 0 0 0 0
0 0 0 0 0 0 0 0 0 0 0 0 0 0 0 0 0 0 0 0 0 0 0 0 0 0 0 0 0 0 0 0 0 0 0 0 0 0 0 0 0 0 0 0 0 0 0 0 0
0 0 0 0 0 0 0 0 0 0 0 0 0 0 0 0 0 0 0 0 0 0 0 0 0 0 0 0 0 0 0 0 0 0 0 0 0 0 0 0 0 0 0 0 0 0 0 0 0
Wind_Speed
9 6 3 2 4 3 1 2 1 3 3 4 4 2 3 5 5 5 5 5 6 6 7 7 5 4 3 3 2 2 2 2 2 2 2 2 3 3 3 4 4 4 4 4 3 2 2 1 1
8 5 3 3 3 2 3 2 3 4 5 4 3 2 3 6 6 6 5 6 7 7 6 6 5 3 3 3 3 2 3 3 3 3 3 3 4 5 5 5 5 5 6 6 5 4 4 3 2
7 4 3 3 2 1 3 3 4 5 4 2 2 3 4 5 4 4 6 7 7 7 6 7 4 4 3 3 3 3 4 4 4 4 4 4 4 5 6 6 6 6 7 7 7 6 5 5 3
4 4 4 3 1 2 2 3 4 5 4 2 2 4 5 5 3 6 8 7 7 7 6 7 5 4 3 3 3 3 4 4 4 5 5 5 5 5 6 6 6 7 8 9 8 7 7 6 5
3 4 4 2 1 2 1 2 2 2 3 3 2 4 6 5 6 8 7 7 7 7 6 6 6 4 4 4 4 4 4 5 5 5 5 6 6 5 6 7 7 7 8 8 8 7 7 7 6
3 3 3 1 2 2 2 3 2 2 4 4 3 4 6 6 7 7 7 6 6 6 5 5 6 5 5 5 5 5 5 5 5 5 5 5 6 7 7 7 7 8 8 7 8 7 7 7 7
3 3 2 0 1 2 3 3 2 2 3 3 2 3 6 7 7 7 7 6 5 5 4 3 3 3 3 3 5 5 6 6 5 5 5 5 6 6 7 7 7 7 7 7 7 7 8 7 7
3 3 2 1 2 2 4 3 2 2 3 4 2 2 5 9 8 7 6 5 5 4 3 3 3 2 2 1 4 4 5 5 5 4 5 5 5 5 5 6 5 6 6 6 6 6 7 7 7
4 4 3 2 2 2 5 4 3 2 4 4 2 3 6 11 10 8 6 5 4 3 2 2 2 3 3 3 3 2 1 2 4 3 2 5 5 5 4 4 5 6 6 6 6 5 6 7 7
5 4 2 0 2 2 5 4 5 5 5 4 5 6 8 10 9 7 5 4 3 2 1 2 2 3 3 3 2 3 3 3 4 5 4 4 4 4 5 2 4 5 5 6 5 5 7 7 5
5 4 1 1 2 3 5 5 5 4 3 4 6 9 11 10 8 6 4 3 2 1 1 2 2 3 3 3 3 3 3 3 4 5 5 4 4 4 4 3 3 4 5 5 4 5 4 4 4
5 3 2 1 2 4 5 5 5 5 0 3 6 9 11 10 9 7 4 3 2 1 1 2 3 3 4 4 3 4 3 3 3 4 6 4 3 4 4 3 3 3 3 3 4 3 5 5 5
6 3 2 2 4 4 4 5 3 4 3 5 8 9 10 9 7 6 4 3 2 1 0 1 3 4 4 4 3 4 4 4 4 4 5 5 4 5 4 3 3 4 3 3 4 4 4 5 5
4 4 3 3 4 5 5 5 4 4 6 9 10 10 9 8 7 6 5 3 2 0 1 1 3 4 5 4 4 4 4 3 4 4 5 6 4 5 5 4 4 4 4 3 4 5 4 4 4
4 5 4 4 5 4 5 6 7 5 8 10 10 9 8 7 7 6 4 3 1 0 1 2 3 4 5 5 5 4 4 4 4 4 6 6 5 5 4 4 4 4 4 4 4 5 4 4 4
6 6 6 5 5 5 6 5 4 7 10 10 9 9 8 8 7 6 4 3 2 1 1 2 2 3 4 5 4 4 4 4 4 4 4 5 5 5 5 4 4 4 4 4 3 4 4 4 4
7 7 5 5 6 5 7 5 4 6 9 10 9 9 9 8 7 6 5 4 2 1 0 1 2 3 4 4 3 4 4 4 4 4 4 5 5 6 5 4 5 5 3 3 4 3 3 3 3
7 6 5 4 5 7 8 7 4 7 8 9 9 9 10 9 8 7 6 4 3 2 1 1 2 3 3 3 3 3 3 3 3 3 4 5 5 5 5 4 5 4 3 3 3 3 3 3 3
5 5 5 2 2 6 9 8 6 7 9 9 9 10 10 9 7 7 6 6 5 3 1 0 2 2 2 3 3 4 4 4 3 3 5 5 5 5 5 4 4 4 3 4 5 3 4 3 2
7 7 5 1 2 5 6 8 6 6 9 9 9 9 9 8 8 8 7 7 5 3 2 1 1 2 3 3 4 3 4 4 4 4 4 5 5 5 4 4 4 3 3 4 4 3 3 2 2
8 8 5 2 1 4 6 7 6 5 6 7 8 8 8 9 9 9 8 7 5 4 2 1 1 1 2 3 3 3 2 3 2 4 4 5 5 5 5 5 4 4 4 3 3 3 3 3 2
6 3 4 4 5 3 4 5 3 5 6 8 9 9 9 9 9 8 8 7 6 4 3 2 1 1 1 2 3 5 4 4 5 4 4 4 4 4 4 4 4 4 3 3 3 2 3 3 2
2 2 3 4 6 6 5 6 2 5 6 7 8 9 9 9 9 9 8 7 6 4 3 2 1 1 1 2 3 4 4 4 4 4 5 5 3 4 4 4 4 4 3 3 3 3 3 3 3
6 5 4 4 6 6 3 6 3 3 3 4 6 7 9 10 9 9 8 7 5 5 4 3 2 1 1 2 3 3 4 5 5 5 5 4 3 3 4 4 4 4 3 3 3 3 3 3 3
7 5 4 5 5 2 2 6 3 2 0 2 3 6 8 9 9 9 9 8 6 6 5 4 3 2 2 3 3 3 3 5 5 5 4 4 4 4 5 4 4 4 3 3 3 2 3 3 3
6 7 4 3 3 1 4 6 0 2 0 2 3 4 7 9 9 9 9 8 7 6 6 5 4 3 2 3 3 3 3 3 3 4 4 4 4 4 5 5 4 4 4 3 2 2 2 2 3
5 5 4 6 4 5 2 3 3 3 4 5 6 6 8 9 9 9 9 8 7 7 6 5 4 3 3 3 2 2 3 3 4 4 4 4 4 4 5 5 4 3 3 3 3 1 1 2 2
3 2 4 5 4 5 3 4 1 3 6 7 8 8 8 8 9 9 8 8 8 7 6 5 4 3 3 3 2 1 3 3 4 4 4 4 5 5 5 4 4 3 2 2 2 2 1 1 0
5 5 4 4 4 5 4 1 2 2 3 6 7 7 7 8 9 9 8 8 8 7 7 6 5 4 3 3 2 2 2 2 3 3 4 4 4 4 4 4 4 3 3 2 2 2 1 1 0
5 5 7 6 4 5 6 3 3 2 3 5 6 6 6 7 8 8 8 8 8 8 7 7 6 4 3 3 3 2 2 2 3 3 4 4 4 4 4 4 4 3 3 2 2 2 1 1 0
Wind_Direction
160 160 180 221 229 219 116 74 42 72 71 61 53 43 38 33 13 49 77 93 111 120 122 127 121 113 107 88 66 43 14 343 331 307 273 265 264 266 262 264 266 270 270 270 272 282 285 297 306
157 167 213 237 248 195 104 91 75 63 87 95 70 54 66 68 53 79 98 99 111 110 113 106 103 93 82 68 52 33 15 356 342 328 305 284 277 276 274 274 275 278 277 270 263 263 268 270 274
155 208 241 241 248 358 82 92 89 96 100 93 79 51 42 59 64 83 96 115 113 107 103 93 84 73 67 58 40 26 11 1 350 337 321 302 289 284 279 275 274 279 282 276 264 260 260 262 261
178 213 231 244 213 58 52 100 122 131 114 81 95 94 79 52 52 92 111 118 113 108 103 92 73 64 51 31 16 13 1 358 353 344 332 321 310 300 294 287 280 273 273 276 271 262 257 258 258
216 242 234 216 106 93 103 108 143 139 112 107 107 95 92 86 95 110 116 114 112 107 98 92 69 55 44 30 21 14 3 354 347 340 341 339 329 318 307 298 291 282 277 278 278 270 261 256 258
219 243 249 194 114 121 132 153 175 128 115 123 125 109 97 115 125 124 121 119 110 105 101 95 90 65 47 34 26 14 4 352 348 344 341 340 335 325 312 301 298 292 286 283 281 276 265 253 252
251 261 276 280 146 154 147 164 182 147 133 119 129 116 119 136 133 132 129 123 111 103 92 83 86 98 91 47 25 12 4 357 349 343 336 333 327 320 309 302 301 298 296 288 280 277 272 259 248
257 257 244 229 214 148 140 157 144 166 112 108 168 132 130 142 144 140 134 128 117 105 91 72 63 24 6 42 65 15 4 353 340 332 331 319 294 287 294 285 299 300 302 301 293 280 276 266 251
230 243 239 212 236 139 158 168 141 143 140 139 135 73 107 136 150 153 150 146 130 106 79 61 33 22 0 347 33 339 335 344 294 272 283 282 287 297 287 319 318 307 304 302 302 290 276 270 245
218 244 231 164 225 161 172 181 160 170 168 160 144 132 135 152 162 165 165 159 147 119 79 30 11 2 350 347 339 325 324 334 315 322 319 304 303 298 300 286 279 285 288 281 277 283 264 256 248
225 253 254 229 231 191 179 175 180 192 187 180 165 155 157 164 171 174 167 151 130 111 68 2 353 355 336 334 333 331 325 326 316 328 323 311 304 294 289 292 267 269 266 278 263 255 253 253 253
225 236 251 222 189 201 188 173 187 217 156 132 152 155 163 174 175 178 172 157 149 119 8 349 338 334 334 335 335 319 323 326 327 327 322 318 313 306 311 297 308 298 289 283 274 269 257 256 251
225 219 200 197 191 196 189 195 209 208 173 148 150 162 171 175 176 174 171 171 178 178 42 343 327 335 337 338 322 317 326 326 328 328 318 321 312 306 306 297 303 297 295 277 273 267 262 257 251
204 195 188 184 185 186 198 205 220 197 171 165 168 174 178 180 185 181 186 191 191 161 22 3 337 341 335 331 329 332 329 319 315 323 320 319 315 308 307 300 301 298 295 295 281 271 269 264 253
177 192 190 195 193 181 204 217 216 185 176 178 180 178 180 186 191 198 189 193 186 124 30 15 348 341 340 338 340 329 320 320 323 325 320 319 316 308 307 306 302 300 297 290 282 279 269 262 254
192 210 211 186 193 180 219 234 168 172 188 191 188 182 187 191 199 196 188 191 178 179 25 46 355 341 347 346 335 328 326 326 320 319 317 316 316 314 311 305 303 305 299 291 280 274 269 259 257
205 222 220 187 192 192 223 247 150 174 197 199 196 194 194 193 198 194 191 188 179 169 51 33 19 350 353 346 328 327 331 329 322 325 326 324 320 316 306 303 303 303 297 292 287 282 283 276 267
213 226 227 219 180 208 227 243 204 185 207 212 205 203 200 201 197 187 183 179 177 170 162 27 26 348 348 331 328 340 340 334 335 336 334 329 319 317 313 300 301 303 295 289 286 286 277 281 271
242 242 248 252 172 221 236 248 236 208 213 220 214 209 205 202 187 177 178 180 182 172 184 80 339 6 350 342 333 333 340 338 341 343 342 331 322 322 315 307 305 299 296 292 289 284 275 272 272
235 245 249 210 168 241 262 263 247 225 224 225 223 211 205 197 186 179 183 185 190 180 191 220 322 5 357 354 334 326 323 323 338 334 339 339 331 325 318 313 306 300 291 284 286 281 282 278 253
232 249 261 261 187 219 278 256 212 189 213 215 222 217 207 200 197 183 185 187 186 190 185 213 300 354 358 341 330 320 317 307 330 342 346 345 335 328 322 317 311 305 294 291 282 275 270 280 266
230 242 257 250 249 237 261 281 201 188 206 204 204 203 203 197 196 187 185 187 188 185 180 207 218 311 341 323 331 336 336 341 347 337 339 331 333 334 329 317 308 303 299 293 280 279 270 270 267
210 140 220 241 257 258 227 264 210 181 206 194 194 199 198 192 192 187 186 185 184 176 182 207 215 255 318 324 334 313 329 338 334 332 336 334 344 342 338 323 312 306 299 300 296 289 275 258 258
148 157 165 212 241 248 229 256 248 174 194 175 176 186 189 187 187 184 179 180 180 173 182 199 214 234 289 299 305 315 333 327 332 338 341 340 346 341 348 332 321 318 311 308 301 279 263 262 251
200 220 219 216 219 227 133 253 267 85 154 226 193 181 180 181 183 183 182 182 182 184 188 195 208 231 257 284 301 319 326 320 328 335 339 334 340 342 348 335 331 332 323 315 301 277 269 252 244
205 237 265 277 275 220 189 246 293 97 217 232 212 181 177 181 184 187 187 184 186 188 190 199 207 228 250 275 296 312 326 318 335 334 330 331 333 339 340 333 336 335 328 315 306 288 271 262 254
192 219 295 290 288 277 228 248 249 174 200 192 182 179 184 185 186 188 186 186 188 189 191 199 210 225 243 257 275 303 319 326 331 329 332 332 332 337 339 340 337 344 339 325 314 301 295 273 265
310 180 217 257 282 276 266 261 273 185 195 190 193 192 188 187 188 188 186 186 188 187 190 194 209 224 239 249 259 281 299 314 321 326 334 333 334 339 336 338 339 344 338 325 320 316 333 285 256
176 198 225 247 278 289 299 331 42 279 217 206 203 198 193 191 192 189 186 184 185 185 187 191 200 215 221 233 243 255 280 306 314 324 336 332 329 333 336 340 342 344 341 335 330 327 347 312 306
252 244 232 251 234 258 286 298 112 243 245 226 217 203 197 194 191 188 183 181 183 187 189 192 197 203 207 220 238 256 286 292 303 321 329 330 330 330 335 339 341 345 343 338 334 337 335 333 327